Location: Boissi�res
(45.2500°N, 2.3667°E)
Time: 05:18:49
(UTC+00:00)

USA 306 - Pass Details

Date: 03 March 2021
Orbit: 564 x 577 km, 54.0° (Epoch: 13 April)

Event Time Altitude Azimuth Distance (km) Brightness Sun altitude
Rises 19:59:35 0° 298° (WNW) 2,772 7.7 -25.0°
Reaches altitude 10° 20:02:06 10° 311° (NW) 1,871 6.4 -25.4°
Enters shadow 20:05:20 27° 360° (N) 1,115 4.5 -26.0°
